Tracking 19247 objects as of 22-Sep-2018
HD Live streaming from Space Station
objects crossing your sky now

BIRD GG

Track BIRD GG now!
10-day predictions
BIRD GG is classified as:


NORAD ID: 42821
Int'l Code: 1998-067MV
Perigee: 360.4 km
Apogee: 364.3 km
Inclination: 51.6 °
Period: 91.6 minutes
Semi major axis: 6733 km
RCS: Unknown
Launch date: November 20, 1998
Source: (GHA)
Launch site: TYURATAM MISSILE AND SPACE COMPLEX (TTMTR)
Uplink (MHz):
Downlink (MHz): 437.375
Beacon (MHz): 437.372
Mode: 1k2AFSK 9k6GMSK CW
Call sign: JG6YJP
Status: Inactive

aabbcc
Your satellite tracking list
Your tracking list is empty




NASA's NSSDC Master Catalog

Two Line Element Set (TLE):
1 42821U 98067MV  18263.36131422 +.00020644 +00000-0 +16342-3 0  9994
2 42821 051.6324 236.2955 0002899 129.1745 230.9511 15.71302312068773
Source of the keplerian elements: AMSAT